User: anonymous   Login
Location: Unspecified
(0.0000°N, 0.0000°E)
Time: 03:41:50
(UTC+00:00)
Language:

IGS 8A - Orbit

View from above orbital plane
View from above orbital plane
View from above satellite
View from above satellite

Ground track
Ground track

The orbit data is extracted from the following two-line orbital elements,

1 39061U 13002A   18237.99765027 0.00000000  00000-0  00000-0 0    04
2 39061  97.4567 356.2332 0000999 204.0544 155.9454 15.17637224    00
Epoch (UTC): 25 August 2018 23:56:36
Eccentricity: 0.0000999
inclination: 97.4567°
perigee height: 512 km
apogee height: 513 km
right ascension of ascending node: 356.2332°
argument of perigee: 204.0544°
revolutions per day: 15.17637224
mean anomaly at epoch: 155.9454°
orbit number at epoch: 0

The dashed part of the orbit path shows where the satellite is in the earth's shadow,  

DLR